www.pogodaiklimat.ru

Погода и климат >> Архив погоды >> Гренландия >> Constable Pynt


ПОГОДА в Constable Pynt

  • Прогноз погоды в Constable Pynt
  • Монитор погоды в Constable Pynt

АРХИВ ПОГОДЫ в Constable Pynt

Время (UTC), дата Ветер
(напр.,м/с)
 
Видим.   Явления Облачность Т
(С)
Тd
(С)
f
(%)
Тe
(С)
Тes
(С)
Комфортность P
(гПа)
Po
(гПа)
Тmin
(С)
Tmax
(С)
R
(мм)
R24
(мм)
S
(см)
00 20.06 Ю 2 н/о н/о +1.8 +0.3 90 -2 -2 1010.0 1008.6
03 20.06 ЮВ 2 н/о 1/0
[]
+1.5 +0.2 91 -2 -2 1009.4 1008.1
06 20.06 ЮВ 1 н/о н/о +3.2 +0.4 82 +2 +2 1008.5 1007.1 +1.3 +3.7
09 20.06 ЮВ 2 н/о н/о +5.1 +0.8 74 +3 +3 1008.3 1006.9
12 20.06 ЮВ 6 н/о н/о +3.8 +1.7 86 -2 -2 1007.9 1006.5
15 20.06 ЮВ 7 н/о н/о +4.1 +1.6 84 -2 -2 1007.4 1006.0
18 20.06 ЮВ 7 н/о н/о +3.9 +2.0 87 -2 -2 1007.0 1005.6 +1.3 +6.7
21 20.06 ЮВ 7 н/о н/о +2.7 +1.2 90 -4 -4 1007.2 1005.9
00 21.06 Ю 3 н/о 6/6 60 м
[]
+2.3 +1.5 94 -2 -2 1007.8 1006.4
03 21.06 Ю 4 н/о ?/? +2.5 +2.3 99 -2 -2 1008.0 1006.6
06 21.06 В 2 н/о ?/? +1.7 +1.4 98 -2 -2 1008.2 1006.8 +1.7 +4.0
09 21.06 В 1 н/о ?/? +2.0 +1.5 96 0 0 1008.8 1007.5
12 21.06 ЮВ 5 н/о ?/? +2.5 +1.7 94 -3 -3 1008.7 1007.4
15 21.06 Ю 9-10
{9}
н/о н/о +10.4 +2.9 60 +7 +7 1008.2 1006.9
18 21.06 Ю 10
{9}
н/о н/о +10.3 +2.1 57 +6 +6 1007.8 1006.5 +1.3 +10.7
21 21.06 Ю 7 н/о н/о +9.5 +2.1 60 +6 +6 1007.9 1006.6
00 22.06 ЮВ 4 н/о н/о +4.4 +0.8 77 +1 +1 1007.9 1006.6
03 22.06 ЮВ 3 н/о н/о +0.7 -0.5 92 -4 -4 1008.0 1006.6
06 22.06 Ю 2 н/о н/о +1.8 -0.6 84 -1 -1 1008.0 1006.6 +0.6 +10.4
09 22.06 С 4 н/о н/о +4.3 +1.1 80 0 0 1008.6 1007.2
12 22.06 ЮВ 3 н/о н/о +4.8 +1.2 77 +1 +1 1008.4 1007.0
15 22.06 ЮВ 5 н/о н/о +5.0 +1.4 78 0 0 1007.9 1006.5
18 22.06 ЮВ 6 н/о н/о +4.0 +0.6 78 -1 -1 1007.2 1005.8 +1.8 +5.8
21 22.06 ЮВ 4 н/о н/о +3.1 +0.8 85 -2 -2 1007.0 1005.6
00 23.06 ЮВ 2 н/о н/о +1.8 +0.3 90 -2 -2 1006.9 1005.5
03 23.06 ЮВ 1
{21}
н/о н/о +1.3 0.0 91 -1 -1 1006.7 1005.3
06 23.06 ЮВ 1
{21}
н/о н/о +2.1 0.0 86 0 0 1006.4 1005.0 +1.1 +4.8
09 23.06 ЮВ 3 н/о н/о +4.0 +1.2 82 0 0 1006.6 1005.2
12 23.06 ЮВ 5 н/о н/о +4.5 +1.8 83 -0 -0 1006.7 1005.3
15 23.06 ЮВ 5 н/о н/о +6.0 +1.7 74 +2 +2 1007.0 1005.7
18 23.06 Ю 6 н/о н/о +5.8 +1.5 74 +1 +1 1007.6 1006.2 +2.1 +8.6
21 23.06 С 3 н/о н/о +9.6 +2.2 60 +8 +8 1010.3 1009.0
00 24.06 ЮВ 4 н/о н/о +2.7 +1.2 90 -2 -2 1012.3 1011.0
03 24.06 Ю 3 н/о н/о +1.9 0.0 87 -2 -2 1013.9 1012.5
06 24.06 В 1 н/о н/о +4.6 +0.6 75 +5 +5 1014.7 1013.4 +1.6 +9.8
09 24.06 ЮВ 1 н/о н/о +7.7 +1.6 65 +7 +7 1015.3 1014.0
12 24.06 ЮВ 5 н/о н/о +9.7 +1.2 55 +7 +7 1015.0 1013.7
15 24.06 ЮВ 6 н/о н/о +7.3 +0.7 63 +3 +3 1014.0 1012.6
18 24.06 ЮВ 6 н/о н/о +6.6 +1.6 70 +2 +2 1012.5 1011.1 +4.0 +10.2
21 24.06 ЮВ 4 н/о н/о +4.2 +0.6 77 0 0 1011.3 1009.9
00 25.06 Ю 1 н/о 6/0
[]
+3.9 +1.4 84 +4 +4 1009.6 1008.2
03 25.06 Ю 2 н/о 10/0
[]
+4.9 +2.0 81 +3 +3 1008.4 1007.1
06 25.06 Ю 2 н/о 1/0
[]
+4.1 +1.6 84 +2 +3 1008.7 1007.4 +2.9 +6.9
09 25.06 СВ 1 н/о н/о +9.1 +2.4 63 +9 +9 1009.9 1008.6
12 25.06 ЮВ 6 н/о н/о +5.7 +1.4 74 +1 +1 1011.6 1010.2
15 25.06 ЮВ 6 н/о н/о +6.9 +1.0 66 +3 +3 1012.7 1011.4
18 25.06 ЮВ 6 н/о н/о +6.3 +0.7 67 +2 +2 1013.6 1012.2 +3.9 +9.6
21 25.06 Ю 6 н/о н/о +6.6 -0.7 60 +3 +3 1014.8 1013.4
00 26.06 СЗ 2 н/о н/о +7.4 -0.2 59 +6 +6 1016.1 1014.7
03 26.06 ЮВ 2 н/о н/о +5.2 +1.7 78 +3 +3 1016.6 1015.2
06 26.06 ЮВ 1 н/о н/о +8.4 +1.8 63 +8 +8 1016.4 1015.1 +5.1 +9.4
09 26.06 В 2 н/о н/о +8.4 +1.3 61 +7 +7 1017.0 1015.6
12 26.06 ЮВ 3 н/о н/о +15.1 +2.3 42 +15 +15 1016.2 1014.9
15 26.06 Ю 5 н/о н/о +15.1 +1.2 39 +14 +14 1015.3 1013.9
18 26.06 ЮВ 7 н/о н/о +10.5 +2.0 56 +7 +7 1014.6 1013.2 +5.7 +17.7
21 26.06 Ю 2 н/о 9/0
[]
+9.0 +2.1 62 +8 +8 1014.7 1013.4

 

Местоположение метеостанции Constable Pynt (Гренландия): широта 70.75 долгота -22.65 высота над уровнем моря 14 м.

В архиве по умолчанию представлена погода в Constable Pynt за последнюю неделю. Архивные данные за месяц целиком и за предыдущие месяцы, начиная с января 2011 года, Вы можете получить, выбрав интересующий диапазон дат из раскрывающегося списка и нажав кнопку "Ввод!".


*Определитесь, кто Вы:
робот инопланетянин человек

Внимание! Время в таблицах - всемирное. Для получения местного времени необходимо прибавить поправку, которая равна -1 ч.

Смотрите также архив погоды в соседних городах и на ближайших метеорологических станциях:

Погода в Ittoqqortoormiit (Гренландия) (40 км)
Погода в Daneborg (Гренландия) (403 км)
Погода на Хорнбьяргсвити (Исландия) (482 км)
Погода в Aputiteq Ads (Гренландия) (502 км)
Погода на Гримсее (Исландия) (505 км)
Погода на Ян-Майене (Норвегия) (510 км)
Погода в Болюнгарвик Шелфви (Исландия) (511 км)
Погода в Болунгарвике (Исландия) (512 км)
Погода в Блёндюоусе (Исландия) (574 км)
Погода в Бергстадире (Исландия) (575 км)

Пояснения к столбцам:

Ветер - указаны скорость ветра в м/с - средняя за 10 мин, порывы в срок и между сроками (в фигурных скобках) и направление, откуда дует ветер: С - северный, СВ - северо-восточный, В - восточный, ЮВ - юго-восточный, Ю - южный, ЮЗ - юго-западный, З - западный, СЗ - северо-западный.
Видимость - горизонтальная дальность видимости в метрах или километрах. При видимости от 1 до 10 км при отсутствии осадков обычно наблюдается дымка, при ухудшении видимости до 1 км и менее - туман. В сухую погоду видимость может ухудшаться дымом, пылью или мглою.
Явления - указаны атмосферные явления, наблюдавшиеся в срок или в последний час перед сроком; фигурными скобками обозначены явления, наблюдавшиеся между сроками (за 1-3 часа до срока); квадратными скобками обозначены град или гололедные отложения с указанием их диаметра в мм.
Облачность - указаны через наклонную черту общая и нижняя облачность в баллах и высота нижней границы облаков в метрах; квадратными скобками обозначены формы облаков: Ci - перистые, Cs - перисто-слоистые, Cc - перисто-кучевые, Ac - высококучевые, As - высокослоистые, Sc - слоисто-кучевые, Ns - слоисто-дождевые, Cu - кучевые, Cb - кучево-дождевые. Подробнее классификацию облаков см. в Атласе облаков (PDF).
T - Температура воздуха - температура, измеренная на высоте 2 м над землей.
Td - Температура точки росы - температура, при понижении до которой содержащийся в воздухе водяной пар достигнет насыщения.
f - Относительная влажность воздуха - влажноcть воздуха, измеренная на высоте 2 м над землей.
Te - Эффективная температура - температура, которую ощущает одетый по сезону человек в тени. Характеристика душности погоды. При расчете учитывается влияние влажности воздуха и скорости ветра на теплоощущения человека.
Tes - Эффективная температура на солнце - температура, которую ощущает человек, с поправкой на солнечный нагрев. Характеристика знойности погоды. Зависит от высоты солнца над горизонтом, облачности и скорости ветра. Ночью, в пасмурную погоду, а также при ветре 12 м/с и более поправка равна нулю.
P - Атмосферное давление - приведенное к уровню моря атмосферное давление.
Po - Атмосферное давление - измеренное на уровне метеостанции атмосферное давление.
Tmin - Минимальная температура - минимум температуры воздуха на высоте 2 м над землей.
Tmax - Максимальная температура - максимум температуры воздуха на высоте 2 м над землей.
R - Количество осадков - Количество выпавших осадков за период времени, мм. При наведении курсора мыши на число - период времени, за который выпало указанное количество осадков.
R24 - Количество осадков - Количество выпавших осадков за 24 часа, мм.
S - Снежный покров - Высота снежного покрова, см. При наведении курсора мыши на число - состояние снежного покрова и степень покрытия местности в баллах.